[[{"header":{"parameterUnit":"m.s-1","parameterCategory":1,"la1":30.2991,"la2":30.254,"lo1":-89.0895,"lo2":-89.0444,"dy":0.0017,"dx":0.0017,"nx":28,"ny":28,"refTime":"2025-01-01T09:00:00:Z","depth":0,"parameterNumber":2,"parameterNumberName":"U-component_of_WINDS"},"data":[0,0,0,0,0,0,0,0,0,0,0,0,0,0,0,0,0,0,0,0,0,0,0,0,0,0,0,0,0,0,0,0,0,0,0,0,0,0,0,0,0,0,0,0,0,0,0,0,0,0,0,0,0,0,0,0,0,0,-3.6045,-3.6046,0,-3.6118,-3.6119,-3.6119,-3.5972,-3.5967,-3.5962,-3.5958,-3.6037,-3.6044,-3.605,0,0,0,0,0,0,0,0,0,0,0,0,0,-3.578,-3.5786,-3.6045,-3.6046,-3.6046,-3.6118,-3.6119,-3.612,-3.5973,-3.5967,-3.5961,-3.5956,-3.6035,-3.6043,-3.6051,0,0,0,0,0,0,0,0,0,0,0,0,0,-3.5878,-3.5787,-3.6044,-3.5982,-3.5977,-3.6117,-3.6119,-3.612,-3.5974,-3.5967,-3.596,-3.5953,-3.6032,-3.6042,-3.6052,-3.6258,0,0,-3.6082,-3.6086,0,0,0,0,0,0,0,0,-3.5873,-3.5888,-3.599,-3.5986,-3.5981,-3.6028,-3.6054,-3.6166,-3.5976,-3.5975,-3.5958,-3.5949,-3.604,-3.6049,-3.6079,-3.6262,-3.6265,-3.6083,-3.6089,-3.6093,-3.6096,0,0,0,0,0,0,0,-3.5866,-3.5884,-3.6074,-3.5992,-3.5986,-3.5951,-3.5956,-3.6075,-3.6048,-3.5975,-3.5964,-3.5975,-3.6037,-3.607,-3.608,-3.6267,-3.6083,-3.6092,-3.6098,-3.6102,-3.662,-3.6627,0,0,0,0,0,0,-3.5867,-3.588,-3.6071,-3.6076,-3.5908,-3.5961,-3.5968,-3.6021,-3.6046,-3.6043,-3.5981,-3.5968,-3.6056,-3.6068,-3.6082,-3.6324,-3.6093,-3.6103,-3.6108,-3.6612,-3.6622,-3.663,0,0,0,0,0,0,-3.5862,-3.5886,-3.6068,-3.5975,-3.5995,-3.5973,-3.6034,-3.6026,-3.6059,-3.605,-3.6045,-3.602,-3.6051,-3.6068,-3.6215,-3.6325,-3.6107,-3.6116,-3.6603,-3.6615,-3.6626,-3.6811,0,0,0,0,0,0,-3.5855,-3.5885,-3.5963,-3.5978,-3.6001,-3.62,-3.6041,-3.6032,-3.6076,-3.6059,-3.6086,-3.6083,-3.6047,-3.6201,-3.6225,-3.6335,-3.6124,-3.6593,-3.6608,-3.6622,-3.6795,-3.6828,-3.6856,0,0,0,0,0,-3.5846,-3.6013,-3.5967,-3.5991,-3.6098,-3.6207,-3.622,-3.6174,-3.6085,-3.6164,-3.6158,-3.6082,-3.6309,-3.6217,-3.6243,-3.6357,-3.6586,-3.6604,-3.6621,-3.6782,-3.6822,-3.6855,0,0,0,0,0,0,-3.6015,-3.6014,-3.5963,-3.614,-3.6174,-3.6182,-3.6279,-3.6218,-3.6279,-3.6261,-3.6202,-3.6209,-3.6367,-3.6376,-3.6274,-3.6557,-3.6432,-3.6456,-3.6546,-3.6583,-3.6613,-3.6608,-3.6132,0,0,0,0,0,-3.6072,-3.6159,-3.6154,-3.6311,-3.6331,-3.6302,-3.6348,-3.6309,-3.6342,-3.6357,-3.6361,-3.6398,-3.6476,-3.653,-3.6603,-3.6795,-3.6798,-3.6886,-3.6917,-3.6941,-3.6963,-3.7064,-3.7103,-3.6688,-3.6688,-3.6687,0,0,-3.6192,-3.6203,-3.6262,-3.6345,-3.6367,-3.6459,-3.6316,-3.642,-3.6488,-3.6373,-3.6511,-3.6516,-3.6552,-3.6722,-3.6798,-3.6735,-3.7078,-3.6964,-3.6984,-3.6992,-3.7086,-3.7125,-3.716,-3.67,-3.6698,-3.6696,0,0,-3.6458,-3.6475,-3.6607,-3.663,-3.6664,-3.6643,-3.6675,-3.6691,-3.6689,-3.6827,-3.6741,-3.6821,-3.6959,-3.6988,-3.7021,-3.7294,-3.7227,-3.732,-3.7479,-3.7578,-3.761,-3.7639,-3.7736,-3.7772,-3.7341,-3.7341,-3.7342,0,-3.6604,-3.6739,-3.6683,-3.6792,-3.6831,-3.6728,-3.6861,-3.6887,-3.6944,-3.6973,-3.6902,-3.707,-3.7088,-3.7262,-3.7329,-3.7359,-3.7393,-3.7317,-3.761,-3.7638,-3.7664,-3.7756,-3.7793,-3.7352,-3.7351,-3.735,-3.7349,0,-3.6916,-3.701,-3.7113,-3.7167,-3.7217,-3.7339,-3.7301,-3.7358,-3.7314,-3.7301,-3.7441,-3.7458,-3.7531,-3.7569,-3.7528,-3.7738,-3.7698,-3.7619,-3.7493,-3.7716,-3.7801,-3.7836,-3.7368,-3.7364,-3.7361,-3.7358,0,0,-3.7293,-3.7313,-3.7351,-3.7374,-3.7402,-3.7474,-3.759,-3.7659,-3.7709,-3.7751,-3.7846,-3.7963,-3.789,-3.7927,-3.7888,-3.7975,-3.8189,-3.7885,-3.7885,-3.7941,-3.8421,-3.848,-3.8522,-3.8144,-3.815,-3.8156,-3.8417,0,-3.7557,-3.7754,-3.7706,-3.7902,-3.7988,-3.7889,-3.799,-3.8018,-3.8009,-3.808,-3.8069,-3.8153,-3.805,-3.8072,-3.8153,-3.8146,-3.8285,-3.8126,-3.8233,-3.8237,-3.8228,-3.8567,-3.863,-3.8877,-3.8451,-3.8456,-3.846,0,-3.7892,-3.7943,-3.8148,-3.8159,-3.8193,-3.8285,-3.8343,-3.8413,-3.8442,-3.8429,-3.8469,-3.8412,-3.8525,-3.8397,-3.8552,-3.8446,-3.8486,-3.8489,-3.8497,-3.8506,-3.8363,-3.8585,-3.8955,-3.8992,-3.8513,-3.8508,-3.8505,0,-3.8146,-3.8267,-3.8404,-3.8427,-3.8444,-3.851,-3.852,-3.8542,-3.8586,-3.8637,-3.8665,-3.873,-3.8766,-3.8817,-3.8778,-3.8688,-3.894,-3.8809,-3.8933,-3.8934,-3.8992,-3.8989,-3.9373,-3.9017,-3.9016,-3.9016,-3.9015,0,-3.8446,-3.8575,-3.8518,-3.8603,-3.8744,-3.8686,-3.8827,-3.8826,-3.8846,-3.8929,-3.8848,-3.8928,-3.8871,-3.8946,-3.8917,-3.905,-3.9067,-3.9059,-3.905,-3.9067,-3.9068,-3.9093,-3.9076,-3.9025,-3.9023,-3.9021,-3.902,0,-3.8755,-3.8723,-3.8865,-3.8869,-3.8872,-3.8976,-3.8979,-3.9057,-3.904,-3.9146,-3.9167,-3.9141,-3.9224,-3.919,-3.9279,-3.9259,-3.9429,-3.9398,-3.942,-3.9411,-3.9537,-3.9526,-3.9952,-4.0005,-3.9615,-3.9618,-3.9622,0,-3.895,-3.9046,-3.9058,-3.9107,-3.9122,-3.9202,-3.9245,-3.9192,-3.9241,-3.928,-3.9354,-3.9429,-3.9487,-3.9625,-3.9615,-3.9682,-3.9651,-3.9795,-3.9661,-3.9674,-3.9653,-3.9648,-3.9657,-3.9823,-3.9828,-3.9831,-3.9834,0,-3.9297,-3.9275,-3.934,-3.94,-3.9454,-3.9498,-3.9536,-3.9581,-3.9528,-3.9587,-3.967,-3.9715,-3.9804,-3.9881,-3.9939,-3.995,-3.9885,-3.9876,-3.9908,-3.9927,-3.9936,-3.9932,-3.9494,-3.9867,-3.9864,-3.9862,-3.986,-3.9858,-3.9555,-3.9635,-3.9655,-3.973,-3.9752,-3.9789,-3.9861,-3.9852,-3.992,-3.9987,-3.9951,-4.0048,-4.0073,-4.0144,-4.0164,-4.0239,-4.0182,-4.0229,-4.0241,-4.0254,-4.027,-3.9923,-4.025,-4.0248,-4.0248,-4.0247,-4.0246,0,-3.9898,-3.9905,-3.9975,-4.0028,-4.0087,-4.0017,-4.0054,-4.0108,-4.0194,-4.0222,-4.0279,-4.0374,-4.0447,-4.0441,-4.0508,-4.0569,-4.054,-4.0588,-4.0583,-4.0587,-4.0317,-4.0282,-4.061,-4.061,-4.061,-4.061,-4.061,-4.061,-4.0083,-4.0215,-4.0195,-4.0336,-4.0343,-4.0436,-4.0463,-4.0496,-4.0517,-4.0626,-4.0685,-4.068,-4.0694,-4.076,-4.0824,-4.082,-4.0848,-4.0908,-4.0893,-4.0642,-4.0606,-4.0572,-4.0539,-4.0915,-4.0915,-4.1156,-4.1158,-4.116]},{"header":{"parameterUnit":"m.s-1","parameterCategory":1,"la1":30.2991,"la2":30.254,"lo1":-89.0895,"lo2":-89.0444,"dy":0.0017,"dx":0.0017,"nx":28,"ny":28,"refTime":"2025-01-01T09:00:00:Z","depth":0,"parameterNumber":3,"parameterNumberName":"V-component_of_WINDS"},"data":[0,0,0,0,0,0,0,0,0,0,0,0,0,0,0,0,0,0,0,0,0,0,0,0,0,0,0,0,0,0,0,0,0,0,0,0,0,0,0,0,0,0,0,0,0,0,0,0,0,0,0,0,0,0,0,0,0,0,-3.3208,-3.3209,0,-3.3302,-3.3303,-3.3304,-3.3293,-3.3291,-3.329,-3.3288,-3.3382,-3.3386,-3.339,0,0,0,0,0,0,0,0,0,0,0,0,0,-3.3016,-3.3019,-3.3208,-3.3209,-3.321,-3.3301,-3.3303,-3.3304,-3.3293,-3.3291,-3.3289,-3.3288,-3.3381,-3.3386,-3.339,0,0,0,0,0,0,0,0,0,0,0,0,0,-3.3103,-3.302,-3.3208,-3.3216,-3.3217,-3.3301,-3.3303,-3.3304,-3.3293,-3.3291,-3.3289,-3.3287,-3.3379,-3.3385,-3.3391,-3.3472,0,0,-3.3409,-3.3411,0,0,0,0,0,0,0,0,-3.3098,-3.311,-3.3213,-3.3215,-3.3217,-3.3283,-3.3269,-3.336,-3.3294,-3.3264,-3.3288,-3.3286,-3.3351,-3.3359,-3.3381,-3.3476,-3.348,-3.3409,-3.3413,-3.3415,-3.3417,0,0,0,0,0,0,0,-3.3092,-3.3106,-3.3245,-3.3215,-3.3217,-3.3213,-3.3223,-3.3287,-3.3319,-3.3267,-3.3266,-3.3278,-3.3352,-3.3376,-3.3384,-3.3482,-3.3409,-3.3414,-3.3418,-3.342,-3.3645,-3.3647,0,0,0,0,0,0,-3.3085,-3.3101,-3.3242,-3.3248,-3.3151,-3.3219,-3.323,-3.3264,-3.3318,-3.3325,-3.3279,-3.3277,-3.3367,-3.3377,-3.3387,-3.3483,-3.3415,-3.3421,-3.3424,-3.3643,-3.3645,-3.3648,0,0,0,0,0,0,-3.308,-3.3097,-3.3238,-3.3174,-3.3192,-3.3224,-3.3263,-3.3267,-3.3292,-3.3328,-3.3333,-3.3298,-3.3366,-3.3379,-3.345,-3.3487,-3.3423,-3.3429,-3.364,-3.3643,-3.3647,-3.3678,0,0,0,0,0,0,-3.3075,-3.3096,-3.3128,-3.3175,-3.3195,-3.3301,-3.3265,-3.3271,-3.3302,-3.3299,-3.3347,-3.3353,-3.3365,-3.3442,-3.3456,-3.3493,-3.3433,-3.3636,-3.3641,-3.3646,-3.3674,-3.3683,-3.369,0,0,0,0,0,-3.3068,-3.3133,-3.313,-3.3147,-3.3237,-3.3304,-3.3315,-3.3328,-3.3305,-3.3337,-3.336,-3.3351,-3.348,-3.3449,-3.3465,-3.3505,-3.3634,-3.364,-3.3645,-3.3671,-3.3681,-3.369,0,0,0,0,0,0,-3.309,-3.314,-3.3136,-3.3219,-3.3257,-3.3302,-3.3342,-3.3339,-3.3384,-3.3379,-3.3393,-3.3403,-3.3475,-3.3498,-3.3462,-3.3585,-3.3554,-3.3563,-3.3568,-3.3578,-3.3586,-3.3578,-3.3438,0,0,0,0,0,-3.3104,-3.3155,-3.3196,-3.3265,-3.3284,-3.331,-3.3339,-3.3346,-3.3386,-3.3402,-3.343,-3.3468,-3.3517,-3.3549,-3.3596,-3.3678,-3.3686,-3.3713,-3.372,-3.3727,-3.3734,-3.3776,-3.3787,-3.3666,-3.3666,-3.3666,0,0,-3.3134,-3.3168,-3.3199,-3.327,-3.33,-3.3351,-3.3323,-3.3379,-3.3417,-3.341,-3.3479,-3.3501,-3.3544,-3.3621,-3.3656,-3.3641,-3.3769,-3.3734,-3.3738,-3.3742,-3.3783,-3.3794,-3.3804,-3.367,-3.3669,-3.3669,0,0,-3.3215,-3.3246,-3.3306,-3.3337,-3.3383,-3.3399,-3.3413,-3.3458,-3.3472,-3.3542,-3.3537,-3.3581,-3.3666,-3.3696,-3.3723,-3.3812,-3.3806,-3.3827,-3.3868,-3.3909,-3.3918,-3.3927,-3.3957,-3.3968,-3.3835,-3.3835,-3.3835,0,-3.3246,-3.3324,-3.3337,-3.3393,-3.3423,-3.3419,-3.3478,-3.3507,-3.3566,-3.3586,-3.357,-3.3674,-3.3703,-3.3785,-3.3807,-3.3829,-3.3844,-3.3822,-3.3916,-3.3925,-3.3933,-3.3962,-3.3973,-3.3837,-3.3837,-3.3837,-3.3836,0,-3.3359,-3.3413,-3.3455,-3.3512,-3.3547,-3.3605,-3.3625,-3.3658,-3.3661,-3.3679,-3.3748,-3.3783,-3.3836,-3.3856,-3.386,-3.3938,-3.3927,-3.3913,-3.3882,-3.3946,-3.3973,-3.3985,-3.384,-3.3839,-3.3839,-3.3838,0,0,-3.3457,-3.3518,-3.3534,-3.3558,-3.3608,-3.3649,-3.3705,-3.3757,-3.3785,-3.3825,-3.3871,-3.3942,-3.3929,-3.3959,-3.3965,-3.4002,-3.4067,-3.3983,-3.3984,-3.3996,-3.4153,-3.4162,-3.4175,-3.4064,-3.4066,-3.4068,-3.4149,0,-3.3541,-3.3641,-3.3653,-3.3742,-3.379,-3.3786,-3.3834,-3.3869,-3.3887,-3.3929,-3.3949,-3.3998,-3.3978,-3.3995,-3.4031,-3.4052,-3.4099,-3.4046,-3.4105,-3.4107,-3.4093,-3.419,-3.42,-3.4275,-3.416,-3.4162,-3.4163,0,-3.3653,-3.3695,-3.3789,-3.3829,-3.385,-3.3894,-3.3941,-3.3983,-3.4021,-3.4031,-3.4064,-3.4065,-3.4121,-3.4089,-3.4165,-3.4129,-3.4153,-3.4167,-3.417,-3.4175,-3.4138,-3.4195,-3.43,-3.431,-3.418,-3.4179,-3.4178,0,-3.3711,-3.3793,-3.3858,-3.388,-3.393,-3.396,-3.3982,-3.4018,-3.4048,-3.4089,-3.4108,-3.4155,-3.418,-3.4216,-3.4229,-3.4205,-3.4304,-3.4273,-3.4312,-3.4312,-3.4333,-3.4331,-3.4441,-3.4351,-3.4351,-3.4351,-3.435,0,-3.3803,-3.386,-3.3885,-3.3926,-3.3988,-3.4001,-3.4062,-3.4083,-3.4115,-3.4157,-3.4157,-3.4197,-3.4213,-3.4255,-3.4266,-3.4326,-3.4338,-3.4346,-3.4348,-3.4346,-3.4344,-3.4361,-3.4355,-3.4354,-3.4353,-3.4352,-3.4352,0,-3.388,-3.3899,-3.397,-3.4011,-3.4022,-3.4067,-3.4101,-3.4139,-3.4155,-3.4209,-3.4223,-3.4248,-3.4298,-3.4315,-3.4375,-3.4382,-3.4451,-3.4449,-3.4438,-3.4438,-3.4475,-3.4471,-3.4599,-3.4615,-3.4516,-3.4517,-3.4518,0,-3.3936,-3.398,-3.4025,-3.4054,-3.4077,-3.4123,-3.4153,-3.4167,-3.4198,-3.4244,-3.4275,-3.4324,-3.4364,-3.4443,-3.4466,-3.4511,-3.4509,-3.4551,-3.4516,-3.4511,-3.4508,-3.4504,-3.4507,-3.4557,-3.4558,-3.4559,-3.456,0,-3.4034,-3.4041,-3.4085,-3.4131,-3.4167,-3.4204,-3.424,-3.4263,-3.4282,-3.4316,-3.4367,-3.4398,-3.4458,-3.4506,-3.4552,-3.4573,-3.4569,-3.457,-3.4581,-3.4578,-3.4569,-3.4573,-3.4454,-3.4567,-3.4566,-3.4566,-3.4565,-3.4565,-3.4101,-3.4139,-3.4176,-3.4223,-3.4252,-3.4285,-3.4322,-3.4342,-3.4385,-3.4435,-3.4441,-3.4494,-3.4529,-3.459,-3.4613,-3.4654,-3.4643,-3.4659,-3.4663,-3.4667,-3.4668,-3.4564,-3.4663,-3.4663,-3.4663,-3.4662,-3.4662,0,-3.4197,-3.422,-3.4264,-3.4314,-3.4351,-3.4345,-3.4383,-3.4414,-3.4462,-3.4495,-3.4534,-3.459,-3.4636,-3.4663,-3.4708,-3.4736,-3.4735,-3.4747,-3.4744,-3.4749,-3.4677,-3.4662,-3.4747,-3.4747,-3.4747,-3.4747,-3.4747,-3.4747,-3.4251,-3.4313,-3.4324,-3.44,-3.4422,-3.4475,-3.4497,-3.4527,-3.4553,-3.4617,-3.4655,-3.4672,-3.4702,-3.4749,-3.479,-3.4796,-3.4812,-3.4825,-3.483,-3.4763,-3.4754,-3.4746,-3.4731,-3.4829,-3.4829,-3.4898,-3.4898,-3.4899]}]]